[[{"header":{"parameterUnit":"m.s-1","parameterCategory":1,"la1":30.2991,"la2":30.254,"lo1":-89.0895,"lo2":-89.0444,"dy":0.0017,"dx":0.0017,"nx":28,"ny":28,"refTime":"2023-09-26T03:00:00:Z","depth":0,"parameterNumber":2,"parameterNumberName":"U-component_of_WINDS"},"data":[0,0,0,0,0,0,0,0,0,0,0,0,0,0,0,0,0,0,0,0,0,0,0,0,0,0,0,0,0,0,0,0,0,0,0,0,0,0,0,0,0,0,0,0,0,0,0,0,0,0,0,0,0,0,0,0,0,0,-2.0689,-2.069,0,-2.0743,-2.0743,-2.0744,-2.0688,-2.0686,-2.0684,-2.0681,-2.0739,-2.0743,-2.0746,0,0,0,0,0,0,0,0,0,0,0,0,0,-2.0541,-2.0544,-2.0689,-2.069,-2.069,-2.0742,-2.0743,-2.0744,-2.0688,-2.0686,-2.0683,-2.0681,-2.0738,-2.0742,-2.0747,0,0,0,0,0,0,0,0,0,0,0,0,0,-2.0601,-2.0545,-2.0689,-2.0669,-2.0667,-2.0742,-2.0743,-2.0744,-2.0689,-2.0686,-2.0682,-2.0679,-2.0737,-2.0742,-2.0747,-2.0845,0,0,-2.0764,-2.0766,0,0,0,0,0,0,0,0,-2.0597,-2.0606,-2.0671,-2.067,-2.0669,-2.0705,-2.0712,-2.0778,-2.069,-2.0681,-2.0681,-2.0678,-2.0731,-2.0736,-2.0754,-2.0848,-2.0851,-2.0764,-2.0767,-2.077,-2.0771,0,0,0,0,0,0,0,-2.0593,-2.0604,-2.071,-2.0672,-2.0671,-2.0658,-2.0663,-2.0724,-2.0724,-2.0681,-2.0677,-2.0684,-2.073,-2.0749,-2.0755,-2.0852,-2.0764,-2.0769,-2.0772,-2.0774,-2.103,-2.1034,0,0,0,0,0,0,-2.0591,-2.0601,-2.0708,-2.0712,-2.0624,-2.0663,-2.0669,-2.0697,-2.0723,-2.0723,-2.0687,-2.0682,-2.0741,-2.0749,-2.0757,-2.0875,-2.077,-2.0775,-2.0778,-2.1027,-2.1031,-2.1035,0,0,0,0,0,0,-2.0588,-2.0601,-2.0706,-2.0655,-2.0667,-2.0669,-2.0701,-2.07,-2.0719,-2.0727,-2.0727,-2.0707,-2.0739,-2.0749,-2.0824,-2.0876,-2.0777,-2.0782,-2.1023,-2.1028,-2.1033,-2.1111,0,0,0,0,0,0,-2.0584,-2.06,-2.0637,-2.0656,-2.067,-2.0772,-2.0704,-2.0703,-2.0728,-2.0721,-2.0745,-2.0746,-2.0737,-2.0816,-2.0829,-2.0881,-2.0786,-2.1018,-2.1025,-2.1031,-2.1104,-2.1118,-2.1131,0,0,0,0,0,-2.0579,-2.0658,-2.064,-2.0653,-2.0717,-2.0775,-2.0784,-2.0771,-2.0732,-2.077,-2.0775,-2.0745,-2.0867,-2.0824,-2.0838,-2.0893,-2.1015,-2.1023,-2.1031,-2.1098,-2.1116,-2.113,0,0,0,0,0,0,-2.0646,-2.066,-2.064,-2.0727,-2.075,-2.0766,-2.0813,-2.079,-2.0825,-2.0818,-2.0801,-2.0807,-2.0887,-2.0897,-2.0849,-2.099,-2.0935,-2.0946,-2.0981,-2.0998,-2.1011,-2.1008,-2.079,0,0,0,0,0,-2.067,-2.0716,-2.0726,-2.0802,-2.0815,-2.0812,-2.0837,-2.0825,-2.0849,-2.0859,-2.087,-2.0895,-2.0939,-2.0968,-2.1009,-2.1104,-2.111,-2.1148,-2.1162,-2.1173,-2.1184,-2.1236,-2.1255,-2.1062,-2.1062,-2.1061,0,0,-2.0722,-2.0736,-2.0766,-2.0816,-2.0832,-2.0882,-2.0821,-2.0875,-2.0912,-2.0867,-2.0939,-2.0948,-2.0975,-2.106,-2.1099,-2.1071,-2.1238,-2.1183,-2.1192,-2.1197,-2.1247,-2.1265,-2.1281,-2.1067,-2.1066,-2.1065,0,0,-2.0843,-2.0856,-2.0922,-2.0939,-2.0965,-2.0962,-2.0978,-2.0997,-2.1001,-2.1072,-2.104,-2.1084,-2.1159,-2.1181,-2.1201,-2.1328,-2.1303,-2.1342,-2.1414,-2.1465,-2.148,-2.1494,-2.1541,-2.1558,-2.1352,-2.1352,-2.1352,0,-2.0904,-2.0976,-2.0958,-2.1015,-2.1039,-2.0999,-2.1066,-2.1084,-2.1122,-2.114,-2.1108,-2.1203,-2.1218,-2.1309,-2.134,-2.1357,-2.1376,-2.1341,-2.1479,-2.1492,-2.1505,-2.155,-2.1568,-2.1357,-2.1356,-2.1356,-2.1356,0,-2.1052,-2.1102,-2.1152,-2.1189,-2.1218,-2.1279,-2.1272,-2.1303,-2.1288,-2.1289,-2.1362,-2.1379,-2.1423,-2.1443,-2.1429,-2.1532,-2.1515,-2.1481,-2.1426,-2.1528,-2.1571,-2.1588,-2.1364,-2.1362,-2.1361,-2.1359,0,0,-2.1218,-2.1243,-2.1262,-2.1279,-2.1304,-2.1343,-2.1403,-2.1445,-2.1473,-2.15,-2.1551,-2.1616,-2.1585,-2.1608,-2.1596,-2.1641,-2.1743,-2.1602,-2.1602,-2.163,-2.186,-2.1887,-2.1908,-2.1725,-2.1728,-2.1731,-2.1859,0,-2.1341,-2.1444,-2.1429,-2.1529,-2.1576,-2.1539,-2.1591,-2.1613,-2.1615,-2.1656,-2.1658,-2.1705,-2.166,-2.1674,-2.1716,-2.1722,-2.179,-2.1712,-2.1775,-2.1777,-2.1772,-2.1929,-2.1958,-2.2078,-2.1875,-2.1878,-2.188,0,-2.1498,-2.153,-2.1635,-2.1653,-2.1672,-2.172,-2.1757,-2.1796,-2.182,-2.1818,-2.1844,-2.1824,-2.1885,-2.1826,-2.1911,-2.1858,-2.1883,-2.1889,-2.1894,-2.1902,-2.1837,-2.1944,-2.2116,-2.2135,-2.1905,-2.1903,-2.1901,0,-2.1612,-2.1681,-2.1753,-2.1768,-2.1791,-2.1825,-2.1836,-2.1856,-2.1883,-2.1915,-2.1933,-2.1972,-2.1995,-2.2027,-2.2018,-2.1976,-2.2106,-2.2046,-2.2108,-2.2109,-2.214,-2.2139,-2.2321,-2.2151,-2.2151,-2.215,-2.215,0,-2.1752,-2.1818,-2.1805,-2.185,-2.1923,-2.1905,-2.1978,-2.1984,-2.2003,-2.2049,-2.2018,-2.2062,-2.2046,-2.209,-2.2083,-2.2155,-2.2165,-2.2167,-2.2165,-2.2172,-2.2172,-2.219,-2.2183,-2.2155,-2.2154,-2.2153,-2.2152,0,-2.1893,-2.1886,-2.1963,-2.1977,-2.1982,-2.2036,-2.2048,-2.2091,-2.209,-2.2148,-2.2161,-2.216,-2.221,-2.2203,-2.2258,-2.2254,-2.2345,-2.2331,-2.2337,-2.2335,-2.2399,-2.2394,-2.2602,-2.2629,-2.2438,-2.244,-2.2442,0,-2.1985,-2.2035,-2.2054,-2.2082,-2.2096,-2.2141,-2.2168,-2.2152,-2.2181,-2.2211,-2.2251,-2.2297,-2.2334,-2.2414,-2.242,-2.2462,-2.2451,-2.252,-2.2457,-2.2463,-2.2456,-2.2454,-2.246,-2.2534,-2.2536,-2.2538,-2.254,0,-2.2149,-2.2143,-2.2182,-2.222,-2.2253,-2.2282,-2.2309,-2.2334,-2.232,-2.2354,-2.2404,-2.2432,-2.2488,-2.2536,-2.2575,-2.2587,-2.2563,-2.2559,-2.2576,-2.2585,-2.2588,-2.259,-2.2375,-2.2555,-2.2554,-2.2552,-2.2552,-2.2551,-2.227,-2.2313,-2.2334,-2.2378,-2.2396,-2.2422,-2.2463,-2.2466,-2.2507,-2.2551,-2.2538,-2.2596,-2.2618,-2.2669,-2.2685,-2.273,-2.2705,-2.2729,-2.2736,-2.2743,-2.2752,-2.2577,-2.2737,-2.2736,-2.2736,-2.2736,-2.2735,0,-2.2435,-2.2446,-2.2487,-2.2525,-2.256,-2.2531,-2.2559,-2.2591,-2.2641,-2.2664,-2.27,-2.2758,-2.2803,-2.2811,-2.2854,-2.2889,-2.2879,-2.2902,-2.2901,-2.2904,-2.277,-2.2753,-2.2909,-2.2909,-2.2909,-2.2909,-2.2909,-2.2909,-2.2525,-2.2597,-2.2594,-2.2674,-2.2685,-2.274,-2.2759,-2.2782,-2.28,-2.2866,-2.2903,-2.2907,-2.2925,-2.2969,-2.301,-2.3011,-2.303,-2.3058,-2.3055,-2.2931,-2.2913,-2.2897,-2.288,-2.3061,-2.3061,-2.3185,-2.3186,-2.3187]},{"header":{"parameterUnit":"m.s-1","parameterCategory":1,"la1":30.2991,"la2":30.254,"lo1":-89.0895,"lo2":-89.0444,"dy":0.0017,"dx":0.0017,"nx":28,"ny":28,"refTime":"2023-09-26T03:00:00:Z","depth":0,"parameterNumber":3,"parameterNumberName":"V-component_of_WINDS"},"data":[0,0,0,0,0,0,0,0,0,0,0,0,0,0,0,0,0,0,0,0,0,0,0,0,0,0,0,0,0,0,0,0,0,0,0,0,0,0,0,0,0,0,0,0,0,0,0,0,0,0,0,0,0,0,0,0,0,0,-3.0144,-3.0144,0,-3.0156,-3.0156,-3.0157,-3.0117,-3.0116,-3.0115,-3.0114,-3.0124,-3.0126,-3.0127,0,0,0,0,0,0,0,0,0,0,0,0,0,-3.0083,-3.0085,-3.0144,-3.0144,-3.0144,-3.0156,-3.0156,-3.0157,-3.0117,-3.0116,-3.0114,-3.0113,-3.0124,-3.0126,-3.0127,0,0,0,0,0,0,0,0,0,0,0,0,0,-3.0104,-3.0085,-3.0144,-3.0126,-3.0125,-3.0156,-3.0156,-3.0157,-3.0118,-3.0116,-3.0114,-3.0112,-3.0123,-3.0125,-3.0128,-3.0176,0,0,-3.0134,-3.0135,0,0,0,0,0,0,0,0,-3.0103,-3.0106,-3.0128,-3.0127,-3.0126,-3.0133,-3.0139,-3.0163,-3.0118,-3.012,-3.0114,-3.0112,-3.0129,-3.013,-3.0136,-3.0177,-3.0177,-3.0134,-3.0135,-3.0136,-3.0137,0,0,0,0,0,0,0,-3.0102,-3.0106,-3.0149,-3.0129,-3.0127,-3.0117,-3.0118,-3.0143,-3.0134,-3.012,-3.0117,-3.0119,-3.0128,-3.0135,-3.0136,-3.0177,-3.0134,-3.0136,-3.0137,-3.0138,-3.0259,-3.0261,0,0,0,0,0,0,-3.0103,-3.0105,-3.0148,-3.0149,-3.011,-3.0119,-3.012,-3.0133,-3.0134,-3.0132,-3.0121,-3.0117,-3.0132,-3.0134,-3.0137,-3.0195,-3.0136,-3.0138,-3.0139,-3.0257,-3.0259,-3.0261,0,0,0,0,0,0,-3.0102,-3.0107,-3.0148,-3.0126,-3.013,-3.0122,-3.0136,-3.0134,-3.0141,-3.0135,-3.0132,-3.013,-3.0131,-3.0134,-3.0167,-3.0194,-3.0139,-3.0141,-3.0255,-3.0258,-3.026,-3.0311,0,0,0,0,0,0,-3.01,-3.0107,-3.0126,-3.0127,-3.0132,-3.0179,-3.0138,-3.0135,-3.0145,-3.0141,-3.0142,-3.0141,-3.0129,-3.0164,-3.0169,-3.0196,-3.0143,-3.0252,-3.0256,-3.0259,-3.0306,-3.0315,-3.0322,0,0,0,0,0,-3.0098,-3.0139,-3.0127,-3.0133,-3.0156,-3.018,-3.0183,-3.0169,-3.0147,-3.0166,-3.0162,-3.0141,-3.019,-3.0168,-3.0173,-3.0201,-3.025,-3.0255,-3.0259,-3.0303,-3.0313,-3.0322,0,0,0,0,0,0,-3.014,-3.0139,-3.0126,-3.0168,-3.0175,-3.0174,-3.0197,-3.0181,-3.0193,-3.0189,-3.017,-3.0171,-3.0208,-3.0207,-3.0183,-3.0249,-3.0216,-3.0222,-3.0248,-3.0258,-3.0265,-3.0265,-3.0144,0,0,0,0,0,-3.0155,-3.0176,-3.0173,-3.0211,-3.0215,-3.0205,-3.0216,-3.0205,-3.021,-3.0213,-3.0211,-3.0217,-3.0234,-3.0246,-3.0261,-3.0306,-3.0306,-3.0328,-3.0336,-3.0342,-3.0347,-3.0372,-3.0382,-3.0276,-3.0276,-3.0276,0,0,-3.0185,-3.0186,-3.02,-3.0219,-3.0223,-3.0245,-3.0208,-3.0232,-3.0248,-3.0216,-3.0248,-3.0247,-3.0253,-3.0292,-3.031,-3.0293,-3.0377,-3.0348,-3.0353,-3.0355,-3.0377,-3.0388,-3.0396,-3.0279,-3.0278,-3.0278,0,0,-3.025,-3.0253,-3.0286,-3.0291,-3.0297,-3.0291,-3.0299,-3.03,-3.0299,-3.033,-3.0307,-3.0325,-3.0354,-3.036,-3.0366,-3.0434,-3.0415,-3.0439,-3.048,-3.0504,-3.0513,-3.052,-3.0545,-3.0554,-3.0444,-3.0444,-3.0444,0,-3.0286,-3.0319,-3.0304,-3.0331,-3.034,-3.0312,-3.0345,-3.035,-3.0361,-3.0367,-3.0349,-3.0386,-3.0387,-3.0428,-3.0445,-3.0451,-3.0459,-3.0439,-3.0513,-3.052,-3.0527,-3.055,-3.056,-3.0447,-3.0447,-3.0447,-3.0446,0,-3.0363,-3.0386,-3.0411,-3.0424,-3.0436,-3.0465,-3.0454,-3.0467,-3.0455,-3.045,-3.0483,-3.0484,-3.0499,-3.0508,-3.0496,-3.0547,-3.0537,-3.0516,-3.0483,-3.054,-3.0562,-3.0571,-3.0452,-3.045,-3.045,-3.0449,0,0,-3.0457,-3.0461,-3.0471,-3.0476,-3.0482,-3.0499,-3.0527,-3.0542,-3.0555,-3.0563,-3.0586,-3.0611,-3.0592,-3.0599,-3.0587,-3.0608,-3.0663,-3.0585,-3.0585,-3.06,-3.0721,-3.0738,-3.0749,-3.0651,-3.0652,-3.0654,-3.0721,0,-3.0522,-3.0571,-3.0559,-3.0607,-3.0628,-3.0603,-3.0627,-3.0633,-3.0629,-3.0646,-3.0641,-3.066,-3.0633,-3.0637,-3.0657,-3.0653,-3.0687,-3.0647,-3.0672,-3.0673,-3.0673,-3.076,-3.0778,-3.0841,-3.0729,-3.0731,-3.0732,0,-3.0606,-3.0619,-3.067,-3.0672,-3.0681,-3.0703,-3.0717,-3.0733,-3.0739,-3.0734,-3.0743,-3.0727,-3.0754,-3.072,-3.0757,-3.073,-3.0739,-3.0739,-3.0741,-3.0744,-3.0707,-3.0766,-3.0861,-3.0871,-3.0745,-3.0744,-3.0743,0,-3.067,-3.07,-3.0735,-3.074,-3.0744,-3.076,-3.0762,-3.0766,-3.0776,-3.0788,-3.0794,-3.0808,-3.0816,-3.0828,-3.0816,-3.0792,-3.0855,-3.082,-3.0852,-3.0853,-3.0867,-3.0867,-3.0967,-3.0872,-3.0871,-3.0871,-3.0871,0,-3.0745,-3.0778,-3.0764,-3.0785,-3.0821,-3.0805,-3.0841,-3.0839,-3.0843,-3.0864,-3.0841,-3.0861,-3.0843,-3.0861,-3.0852,-3.0884,-3.0888,-3.0885,-3.0882,-3.0888,-3.0888,-3.0894,-3.089,-3.0874,-3.0873,-3.0873,-3.0872,0,-3.0824,-3.0816,-3.0852,-3.0853,-3.0853,-3.088,-3.088,-3.0899,-3.0894,-3.092,-3.0925,-3.0917,-3.0936,-3.0925,-3.0945,-3.0939,-3.0982,-3.0972,-3.098,-3.0978,-3.1012,-3.1009,-3.1119,-3.1133,-3.1028,-3.1029,-3.103,0,-3.0873,-3.0898,-3.0901,-3.0914,-3.0918,-3.0938,-3.0949,-3.0934,-3.0947,-3.0955,-3.0974,-3.0992,-3.1006,-3.1038,-3.1033,-3.1049,-3.104,-3.1078,-3.1042,-3.1047,-3.1042,-3.1041,-3.1044,-3.1085,-3.1086,-3.1087,-3.1088,0,-3.0962,-3.0957,-3.0974,-3.099,-3.1004,-3.1015,-3.1024,-3.1036,-3.1021,-3.1036,-3.1056,-3.1067,-3.1088,-3.1106,-3.1119,-3.112,-3.1102,-3.1099,-3.1108,-3.1114,-3.1118,-3.1118,-3.1001,-3.1097,-3.1096,-3.1096,-3.1095,-3.1095,-3.1028,-3.1049,-3.1055,-3.1075,-3.1081,-3.109,-3.1109,-3.1106,-3.1123,-3.114,-3.113,-3.1154,-3.1159,-3.1175,-3.1179,-3.1197,-3.1182,-3.1194,-3.1197,-3.1201,-3.1206,-3.1115,-3.1199,-3.1199,-3.1199,-3.1198,-3.1198,0,-3.1117,-3.1119,-3.1138,-3.1152,-3.1168,-3.115,-3.1159,-3.1173,-3.1195,-3.1202,-3.1216,-3.124,-3.1257,-3.1254,-3.127,-3.1285,-3.1278,-3.129,-3.129,-3.129,-3.1218,-3.121,-3.1296,-3.1296,-3.1296,-3.1296,-3.1296,-3.1296,-3.1165,-3.12,-3.1195,-3.1233,-3.1235,-3.1259,-3.1266,-3.1275,-3.128,-3.1308,-3.1323,-3.1321,-3.1323,-3.1339,-3.1355,-3.1353,-3.1361,-3.1377,-3.1372,-3.1305,-3.1295,-3.1286,-3.1278,-3.1378,-3.1378,-3.1443,-3.1444,-3.1444]}]]